IU2EVW-3 Weather Reports


time (UTC)temp
C
wind
direction
speed
KPH
gust
KPH
rain 1hr
cm
rain 24hr
cm
rain mn
cm
humidity
%
barometer
mb
20260505211913 12 0.0 0.0 0.00 0.00 0.00 95 1013.6
20260505205911 12 0.0 0.0 0.00 0.00 0.00 95 1013.8
20260505203910 12 0.0 0.0 0.00 0.00 0.00 95 1014.0
20260505201909 12 0.0 0.0 0.00 0.00 0.00 96 1013.9
20260505195908 12 0.0 0.0 0.00 0.00 0.00 97 1013.9
20260505193906 12 0.0 0.0 0.00 0.00 0.00 95 1013.8
20260505191905 12 0.0 0.0 0.00 0.00 0.00 93 1013.8
20260505185904 12 0.0 0.0 0.00 0.00 0.00 91 1013.6
20260505183903 13 0.0 0.0 0.00 0.00 0.00 89 1013.4
20260505181902 13 0.0 0.0 0.00 0.00 0.00 90 1013.4
20260505175901 13 0.0 0.0 0.00 0.00 0.00 90 1013.3
20260505173859 13 0.0 0.0 0.00 0.00 0.00 90 1013.4
20260505171858 13 0.0 0.0 0.00 0.00 0.00 91 1013.4
20260505165857 12 0.0 0.0 0.00 0.00 0.00 90 1013.4
20260505163856 12 0.0 0.0 0.00 0.00 0.00 90 1013.5
20260505161855 12 0.0 0.0 0.00 0.00 0.00 90 1013.6
20260505151851 13 0.0 0.0 0.00 0.00 0.00 88 1013.7
20260505140302 14 0.0 0.0 0.00 0.00 0.00 80 1013.7
20260505130259 13 0.0 0.0 0.00 0.00 0.00 80 1014.0
20260505124257 13 0.0 0.0 0.00 0.00 0.00 80 1014.0
20260505122256 15 0.0 0.0 0.00 0.00 0.00 77 1014.1
20260505120255 15 0.0 0.0 0.00 0.00 0.00 73 1014.0
20260505114254 16 0.0 0.0 0.00 0.00 0.00 71 1014.0
20260505112253 14 0.0 0.0 0.00 0.00 0.00 79 1014.3
20260505110252 13 0.0 0.0 0.00 0.00 0.00 80 1014.4
20260505100248 13 0.0 0.0 0.00 0.00 0.00 82 1014.5
20260505094247 12 0.0 0.0 0.00 0.00 0.00 83 1014.5
20260505092246 12 0.0 0.0 0.00 0.00 0.00 84 1014.3
20260505090245 13 0.0 0.0 0.00 0.00 0.00 81 1014.4
20260505084243 13 0.0 0.0 0.00 0.00 0.00 79 1014.0
20260505082242 13 0.0 0.0 0.00 0.00 0.00 81 1014.1
20260505080241 13 0.0 0.0 0.00 0.00 0.00 83 1014.3
20260505074240 12 0.0 0.0 0.00 0.00 0.00 83 1014.1
20260505072238 12 0.0 0.0 0.00 0.00 0.00 84 1013.8
20260505070237 12 0.0 0.0 0.00 0.00 0.00 86 1014.0
20260505064236 12 0.0 0.0 0.00 0.00 0.00 84 1014.1
20260505062235 12 0.0 0.0 0.00 0.00 0.00 81 1014.2
20260505060234 12 0.0 0.0 0.00 0.00 0.00 80 1014.1
20260505054233 13 0.0 0.0 0.00 0.00 0.00 76 1014.0
20260505052232 13 0.0 0.0 0.00 0.00 0.00 71 1013.6
20260505050231 14 0.0 0.0 0.00 0.00 0.00 66 1013.4
20260505040227 15 0.0 0.0 0.00 0.00 0.00 55 1012.9
20260505034226 15 0.0 0.0 0.00 0.00 0.00 55 1013.0
20260505032225 15 0.0 0.0 0.00 0.00 0.00 55 1013.2
20260505030224 15 0.0 0.0 0.00 0.00 0.00 54 1013.5
20260505024222 15 0.0 0.0 0.00 0.00 0.00 53 1013.7
20260505022221 15 0.0 0.0 0.00 0.00 0.00 54 1013.8
20260505020220 15 0.0 0.0 0.00 0.00 0.00 57 1014.0
20260505014219 14 0.0 0.0 0.00 0.00 0.00 58 1014.1
20260505012218 14 0.0 0.0 0.00 0.00 0.00 59 1014.5
20260505010217 15 0.0 0.0 0.00 0.00 0.00 59 1014.9
20260505004215 15 0.0 0.0 0.00 0.00 0.00 57 1015.0
20260505002214 15 0.0 0.0 0.00 0.00 0.00 57 1015.4
20260505000213 15 0.0 0.0 0.00 0.00 0.00 55 1015.6
20260504234212 15 0.0 0.0 0.00 0.00 0.00 55 1015.9
20260504232211 15 0.0 0.0 0.00 0.00 0.00 55 1016.1
20260504230210 15 0.0 0.0 0.00 0.00 0.00 55 1016.3
20260504224208 15 0.0 0.0 0.00 0.00 0.00 55 1016.3
20260504222207 16 0.0 0.0 0.00 0.00 0.00 51 1016.5
20260504220206 16 0.0 0.0 0.00 0.00 0.00 48 1016.5
20260504214205 16 0.0 0.0 0.00 0.00 0.00 46 1016.6